User: anonymous   Login
Location: Unspecified
(0.0000°N, 0.0000°E)
Time: 04:53:38
(UTC+00:00)
Language:

IRS-P3 - Orbit

View from above orbital plane
View from above orbital plane
View from above satellite
View from above satellite

Ground track
Ground track

The orbit data is extracted from the following two-line orbital elements,

1 23827U 96017A   18113.41393221 +.00000023 +00000-0 +30301-4 0  9990
2 23827 098.7573 053.5964 0002722 203.9567 156.1484 14.22546947146532
Epoch (UTC): 23 April 2018 09:56:03
Eccentricity: 0.0002722
inclination: 98.7573°
perigee height: 815 km
apogee height: 819 km
right ascension of ascending node: 53.5964°
argument of perigee: 203.9567°
revolutions per day: 14.22546947
mean anomaly at epoch: 156.1484°
orbit number at epoch: 14653

The dashed part of the orbit path shows where the satellite is in the earth's shadow,  

DLR